RW6A-13 Weather Reports


time (UTC)temp
C
wind
direction
speed
KPH
gust
KPH
rain 1hr
cm
rain 24hr
cm
rain mn
cm
humidity
%
barometer
mb
20260505170531 13 45 0.0 3.2 0.00 0.00 0.00 76 1009.0
20260505170031 13 90 0.0 3.2 0.00 0.00 0.00 76 1008.9
20260505165531 13 0 0.0 3.2 0.00 0.00 0.00 76 1008.8
20260505165032 13 90 0.0 0.0 0.00 0.00 0.00 77 1008.8
20260505164530 13 90 0.0 3.2 0.00 0.00 0.00 77 1008.7
20260505164030 13 68 0.0 3.2 0.00 0.00 0.00 77 1008.7
20260505163529 13 90 0.0 3.2 0.00 0.00 0.00 76 1008.6
20260505163030 13 90 0.0 3.2 0.00 0.00 0.00 76 1008.6
20260505162530 13 90 1.6 3.2 0.00 0.00 0.00 75 1008.6
20260505162031 13 90 0.0 0.0 0.00 0.03 0.00 73 1008.6
20260505161529 13 90 0.0 0.0 0.00 0.03 0.00 72 1008.5
20260505161029 13 90 0.0 0.0 0.00 0.03 0.00 72 1008.4
20260505160529 13 90 0.0 0.0 0.00 0.05 0.00 71 1008.5
20260505153028 14 90 1.6 4.8 0.00 0.10 0.00 67 1008.4
20260505152528 15 90 1.6 4.8 0.00 0.13 0.00 66 1008.4
20260505152028 15 90 1.6 4.8 0.00 0.13 0.00 67 1008.3
20260505151528 15 90 1.6 3.2 0.00 0.13 0.00 67 1008.4
20260505151029 15 135 0.0 3.2 0.00 0.13 0.00 67 1008.4
20260505150528 15 90 0.0 6.4 0.00 0.18 0.00 67 1008.4
20260505140528 16 45 4.8 12.9 0.00 0.25 0.00 63 1008.3
20260505125027 15 0 1.6 9.7 0.00 0.38 0.00 61 1008.3
20260505124527 16 90 0.0 8.0 0.00 0.38 0.00 64 1008.4
20260505124027 15 90 1.6 9.7 0.00 0.38 0.00 63 1008.4
20260505123527 15 90 3.2 9.7 0.00 0.38 0.00 62 1008.4
20260505123027 16 45 4.8 12.9 0.00 0.38 0.00 62 1008.4
20260505122526 16 45 4.8 11.3 0.00 0.38 0.00 63 1008.4
20260505122027 16 135 1.6 11.3 0.00 0.38 0.00 62 1008.5
20260505121527 16 90 3.2 12.9 0.00 0.38 0.00 61 1008.5
20260505121026 16 113 3.2 9.7 0.00 0.38 0.00 62 1008.6
20260505120526 16 135 3.2 8.0 0.00 0.38 0.00 60 1008.5
20260505120027 16 45 3.2 11.3 0.00 0.38 0.00 60 1008.5
20260505115526 16 0 3.2 8.0 0.00 0.38 0.00 60 1008.5
20260505115026 16 0 1.6 9.7 0.00 0.38 0.00 60 1008.5
20260505114526 16 90 3.2 8.0 0.00 0.38 0.00 60 1008.5
20260505114027 16 45 1.6 8.0 0.00 0.38 0.00 61 1008.5
20260505113526 16 68 4.8 11.3 0.00 0.38 0.00 61 1008.5
20260505113026 16 90 4.8 11.3 0.00 0.38 0.00 60 1008.5
20260505112527 16 135 3.2 12.9 0.00 0.38 0.00 60 1008.5
20260505112026 16 90 0.0 9.7 0.00 0.38 0.00 61 1008.6
20260505111526 16 135 3.2 11.3 0.00 0.38 0.00 62 1008.6
20260505111026 16 90 3.2 8.0 0.00 0.38 0.00 64 1008.6
20260505110526 16 90 4.8 12.9 0.00 0.38 0.00 62 1008.6
20260505102030 15 90 3.2 8.0 0.00 0.38 0.00 67 1008.9
20260505101525 15 90 3.2 8.0 0.00 0.38 0.00 68 1008.9
20260505101025 15 90 3.2 8.0 0.00 0.38 0.00 68 1008.9
20260505100526 15 90 0.0 8.0 0.00 0.38 0.00 68 1009.0
20260505100025 15 113 1.6 8.0 0.00 0.38 0.00 69 1009.0
20260505095525 15 90 1.6 8.0 0.00 0.38 0.00 69 1008.9
20260505095026 15 113 1.6 9.7 0.00 0.38 0.00 69 1009.0
20260505094319 15 90 3.2 9.7 0.00 0.38 0.00 70 1009.0
20260505093819 14 90 3.2 11.3 0.00 0.38 0.00 69 1008.9
20260505093319 14 45 1.6 8.0 0.00 0.38 0.00 71 1009.0
20260505092819 14 45 3.2 9.7 0.00 0.38 0.00 72 1009.0
20260505092319 14 45 1.6 8.0 0.00 0.38 0.00 73 1009.1
20260505091819 13 90 3.2 11.3 0.00 0.38 0.00 72 1009.1
20260505091319 13 45 0.0 6.4 0.00 0.38 0.00 73 1009.1
20260505090819 13 45 0.0 3.2 0.00 0.38 0.00 72 1009.1
20260505090319 13 90 0.0 12.9 0.00 0.38 0.00 73 1009.2
20260505085818 13 90 4.8 12.9 0.00 0.38 0.00 72 1009.1
20260505085319 13 45 3.2 6.4 0.00 0.38 0.00 73 1009.1
20260505084819 13 0 1.6 8.0 0.00 0.38 0.00 73 1009.2
20260505084318 13 135 3.2 8.0 0.00 0.38 0.00 75 1009.2
20260505083818 13 0 0.0 8.0 0.00 0.38 0.00 72 1009.2
20260505083319 13 135 3.2 11.3 0.00 0.38 0.00 72 1009.2
20260505082819 13 45 1.6 8.0 0.00 0.38 0.00 73 1009.3
20260505082318 13 90 0.0 6.4 0.00 0.38 0.00 74 1009.2
20260505081819 13 90 3.2 11.3 0.00 0.38 0.00 73 1009.2
20260505081319 13 90 6.4 12.9 0.00 0.38 0.00 72 1009.2
20260505080818 13 45 3.2 9.7 0.00 0.38 0.00 74 1009.2
20260505080318 13 90 3.2 4.8 0.00 0.38 0.00 75 1009.3
20260505075819 13 45 0.0 1.6 0.00 0.38 0.00 75 1009.3
20260505075318 13 45 1.6 4.8 0.00 0.38 0.00 76 1009.2
20260505074818 13 0 0.0 8.0 0.00 0.38 0.00 76 1009.2
20260505074318 13 90 3.2 8.0 0.00 0.38 0.00 76 1009.3
20260505073818 13 45 1.6 8.0 0.00 0.38 0.00 77 1009.3
20260505073318 13 135 0.0 6.4 0.00 0.38 0.00 78 1009.3
20260505072818 12 315 3.2 8.0 0.00 0.38 0.00 79 1009.3
20260505072317 12 135 0.0 6.4 0.00 0.38 0.00 79 1009.3
20260505071818 12 45 0.0 6.4 0.00 0.38 0.00 80 1009.3
20260505071318 12 90 3.2 9.7 0.00 0.38 0.00 79 1009.3
20260505070817 12 45 0.0 3.2 0.00 0.38 0.00 80 1009.3
20260505070318 12 90 0.0 4.8 0.00 0.38 0.00 80 1009.2
20260505065818 12 0 0.0 3.2 0.00 0.38 0.00 80 1009.2
20260505065318 12 90 0.0 8.0 0.00 0.38 0.00 81 1009.2
20260505064817 12 45 0.0 6.4 0.00 0.38 0.00 81 1009.2
20260505064317 11 45 0.0 3.2 0.00 0.38 0.00 82 1009.3
20260505063818 11 90 0.0 3.2 0.00 0.38 0.00 83 1009.3
20260505063317 11 0 0.0 1.6 0.00 0.38 0.00 83 1009.3
20260505062817 11 45 0.0 3.2 0.00 0.38 0.00 83 1009.3
20260505062317 11 0 0.0 3.2 0.00 0.38 0.00 83 1009.2
20260505061817 11 0 0.0 3.2 0.00 0.38 0.00 83 1009.3
20260505061317 11 68 3.2 4.8 0.00 0.38 0.00 84 1009.3
20260505060817 11 90 0.0 3.2 0.00 0.38 0.00 84 1009.4
20260505060318 11 45 1.6 4.8 0.00 0.38 0.00 84 1009.4
20260505055817 11 45 0.0 3.2 0.00 0.38 0.00 84 1009.4
20260505055317 11 90 0.0 3.2 0.00 0.38 0.00 85 1009.4
20260505054818 10 90 1.6 4.8 0.00 0.38 0.00 85 1009.5
20260505054317 10 90 0.0 3.2 0.00 0.38 0.00 86 1009.4
20260505053817 10 135 0.0 3.2 0.00 0.38 0.00 86 1009.4
20260505053316 10 90 0.0 4.8 0.00 0.38 0.00 85 1009.3
20260505052817 10 68 0.0 6.4 0.00 0.38 0.00 84 1009.3
20260505052317 10 68 1.6 8.0 0.00 0.38 0.00 84 1009.4
20260505051817 10 90 0.0 6.4 0.00 0.38 0.00 84 1009.3
20260505051316 10 0 1.6 4.8 0.00 0.38 0.00 84 1009.3
20260505050817 10 90 3.2 6.4 0.00 0.38 0.00 85 1009.3
20260505050317 10 45 1.6 6.4 0.00 0.38 0.00 86 1009.3
20260505041317 10 0 0.0 1.6 0.00 0.38 0.00 86 1009.0
20260505040816 10 45 0.0 3.2 0.00 0.38 0.00 86 1009.0
20260505040316 10 45 0.0 3.2 0.00 0.38 0.00 86 1009.0
20260505035816 10 90 1.6 6.4 0.00 0.38 0.00 86 1008.9
20260505035316 10 90 1.6 8.0 0.00 0.38 0.00 86 1008.9
20260505034816 9 45 1.6 8.0 0.00 0.38 0.00 86 1008.9
20260505034316 9 90 0.0 8.0 0.00 0.38 0.00 87 1008.9
20260505033816 9 90 1.6 3.2 0.00 0.38 0.00 87 1008.8
20260505033316 9 90 0.0 3.2 0.00 0.38 0.00 88 1008.8
20260505032816 9 45 0.0 0.0 0.00 0.38 0.00 88 1008.7
20260505032315 9 45 0.0 3.2 0.00 0.38 0.00 88 1008.7
20260505031816 9 90 0.0 3.2 0.00 0.38 0.00 87 1008.6
20260505031315 9 0 0.0 6.4 0.00 0.38 0.00 87 1008.6
20260505030815 9 135 0.0 8.0 0.00 0.38 0.00 87 1008.5
20260505030315 9 45 1.6 6.4 0.00 0.38 0.00 87 1008.5
20260505025816 9 45 0.0 6.4 0.00 0.38 0.00 87 1008.5
20260505025315 9 68 1.6 4.8 0.00 0.38 0.00 87 1008.4
20260505024815 9 90 1.6 8.0 0.00 0.38 0.00 87 1008.4
20260505024316 9 90 3.2 9.7 0.00 0.38 0.00 87 1008.4
20260505023816 9 45 0.0 6.4 0.00 0.38 0.00 87 1008.3
20260505023315 9 135 1.6 6.4 0.00 0.38 0.00 87 1008.3
20260505022815 9 45 0.0 4.8 0.00 0.38 0.00 87 1008.2
20260505022315 9 90 0.0 4.8 0.00 0.38 0.00 87 1008.2
20260505021815 9 0 1.6 8.0 0.00 0.38 0.00 87 1008.1
20260505021315 8 68 3.2 8.0 0.00 0.38 0.00 87 1008.0
20260505020815 9 90 0.0 8.0 0.00 0.38 0.00 87 1008.0
20260505020315 9 0 3.2 9.7 0.00 0.38 0.00 87 1008.0
20260505015815 9 90 0.0 8.0 0.00 0.38 0.00 87 1008.0
20260505015315 9 90 3.2 8.0 0.00 0.38 0.00 87 1007.9
20260505014815 9 90 3.2 6.4 0.00 0.38 0.00 87 1007.9
20260505014314 9 90 0.0 3.2 0.00 0.38 0.00 87 1007.9
20260505013815 9 0 0.0 1.6 0.00 0.38 0.00 87 1007.8
20260505013315 9 0 0.0 3.2 0.00 0.38 0.00 87 1007.8
20260505012814 9 45 0.0 3.2 0.00 0.38 0.00 87 1007.8
20260505012314 9 45 0.0 0.0 0.00 0.38 0.00 87 1007.9
20260505011815 9 45 0.0 3.2 0.00 0.38 0.00 87 1007.9
20260505011314 9 90 0.0 6.4 0.00 0.38 0.00 87 1007.9
20260505010815 9 0 1.6 4.8 0.00 0.38 0.00 87 1007.9
20260505010315 9 158 0.0 3.2 0.00 0.38 0.00 86 1007.9
20260505005814 9 45 0.0 3.2 0.00 0.38 0.00 86 1007.9
20260505005314 9 45 0.0 0.0 0.00 0.38 0.00 86 1007.9
20260505004815 9 0 0.0 3.2 0.00 0.38 0.00 85 1007.8
20260505004314 9 45 0.0 0.0 0.00 0.38 0.00 85 1007.8
20260505003814 9 90 0.0 0.0 0.00 0.38 0.00 85 1007.9
20260505003314 9 0 0.0 0.0 0.00 0.38 0.00 85 1007.8
20260505002814 9 90 0.0 3.2 0.00 0.38 0.00 85 1007.8
20260505002314 9 45 0.0 3.2 0.00 0.38 0.00 86 1007.8
20260505001815 9 45 0.0 1.6 0.00 0.38 0.00 86 1007.8
20260505001314 9 45 0.0 0.0 0.00 0.38 0.00 86 1007.8
20260505000814 9 45 0.0 1.6 0.00 0.38 0.00 87 1007.9
20260505000314 9 45 0.0 1.6 0.00 0.38 0.00 87 1007.9
20260504235814 9 45 0.0 0.0 0.00 0.38 0.00 87 1007.9
20260504235314 9 0 0.0 1.6 0.00 0.38 0.00 86 1007.9
20260504234814 9 90 0.0 3.2 0.00 0.38 0.00 86 1008.0
20260504234314 9 90 0.0 4.8 0.00 0.38 0.00 86 1008.0
20260504233814 9 45 0.0 4.8 0.00 0.38 0.00 86 1008.0
20260504233314 9 45 0.0 3.2 0.00 0.38 0.00 86 1008.0
20260504232813 9 0 0.0 3.2 0.00 0.38 0.00 87 1008.1
20260504232314 9 0 0.0 0.0 0.00 0.38 0.00 87 1008.1
20260504231814 9 45 0.0 0.0 0.00 0.38 0.00 87 1008.1
20260504231313 9 45 0.0 0.0 0.00 0.38 0.00 87 1008.2
20260504230813 9 45 0.0 0.0 0.00 0.38 0.00 87 1008.2
20260504230314 9 0 0.0 3.2 0.00 0.38 0.00 87 1008.3
20260504225813 9 45 0.0 1.6 0.00 0.38 0.00 86 1008.2
20260504225313 9 45 0.0 3.2 0.00 0.38 0.00 85 1008.2
20260504224814 9 45 0.0 3.2 0.00 0.38 0.00 85 1008.3
20260504224313 9 45 0.0 6.4 0.00 0.38 0.00 84 1008.2
20260504223813 10 90 0.0 3.2 0.00 0.38 0.00 84 1008.3
20260504223313 10 90 0.0 3.2 0.00 0.38 0.00 84 1008.3
20260504222813 10 45 0.0 3.2 0.00 0.38 0.00 83 1008.2
20260504222313 10 45 0.0 3.2 0.00 0.38 0.00 83 1008.3
20260504221813 10 135 0.0 4.8 0.00 0.38 0.00 84 1008.3
20260504221313 10 45 1.6 4.8 0.00 0.38 0.00 83 1008.3
20260504220813 10 90 0.0 3.2 0.00 0.38 0.00 84 1008.3
20260504220313 10 90 0.0 6.4 0.00 0.38 0.00 84 1008.2
20260504215813 9 45 1.6 4.8 0.00 0.38 0.00 84 1008.3
20260504215312 9 90 0.0 8.0 0.00 0.38 0.00 84 1008.2
20260504214813 9 45 1.6 6.4 0.00 0.38 0.00 84 1008.3
20260504214313 10 45 3.2 8.0 0.00 0.38 0.00 84 1008.2
20260504213812 9 113 1.6 8.0 0.00 0.38 0.00 85 1008.3
20260504213313 9 90 0.0 8.0 0.00 0.38 0.00 85 1008.3
20260504212813 10 90 3.2 6.4 0.00 0.38 0.00 85 1008.3
20260504212312 10 90 3.2 9.7 0.00 0.38 0.00 85 1008.4
20260504211812 10 45 0.0 8.0 0.00 0.38 0.00 84 1008.3
20260504211313 10 90 3.2 9.7 0.00 0.38 0.00 84 1008.4
20260504210812 9 90 1.6 8.0 0.00 0.38 0.00 85 1008.4
20260504210312 9 90 3.2 9.7 0.00 0.38 0.00 85 1008.3
20260504205813 9 90 1.6 6.4 0.00 0.38 0.00 85 1008.3
20260504205312 9 90 3.2 9.7 0.00 0.38 0.00 85 1008.3
20260504204812 9 90 3.2 8.0 0.00 0.38 0.00 86 1008.3
20260504204313 9 45 3.2 11.3 0.00 0.38 0.00 87 1008.3
20260504203812 9 90 3.2 8.0 0.00 0.38 0.00 87 1008.3
20260504203312 9 90 3.2 9.7 0.00 0.38 0.00 88 1008.3
20260504202812 9 45 1.6 8.0 0.00 0.38 0.00 89 1008.3
20260504202312 9 90 3.2 9.7 0.00 0.38 0.00 89 1008.5
20260504201812 9 90 3.2 9.7 0.00 0.38 0.00 90 1008.6
20260504201312 8 45 3.2 9.7 0.00 0.38 0.00 90 1008.5
20260504200812 8 90 3.2 11.3 0.00 0.38 0.00 91 1008.6
20260504200312 8 90 3.2 11.3 0.00 0.38 0.00 91 1008.6
20260504195812 8 45 0.0 8.0 0.00 0.38 0.00 91 1008.6
20260504195311 8 45 3.2 8.0 0.00 0.38 0.00 91 1008.7
20260504194812 8 45 3.2 6.4 0.00 0.38 0.00 91 1008.9
20260504194311 8 90 3.2 8.0 0.00 0.38 0.00 91 1008.9
20260504193811 8 135 1.6 6.4 0.00 0.38 0.00 91 1009.0
20260504193312 8 45 0.0 4.8 0.00 0.38 0.00 91 1009.0
20260504192812 8 90 0.0 4.8 0.00 0.38 0.00 91 1009.0
20260504192311 9 315 1.6 6.4 0.00 0.38 0.00 91 1008.9
20260504191812 9 90 1.6 8.0 0.00 0.38 0.00 91 1008.9
20260504191312 8 90 0.0 8.0 0.00 0.38 0.00 92 1009.0
20260504190811 8 135 0.0 3.2 0.00 0.38 0.00 92 1009.1
20260504190311 8 90 0.0 3.2 0.00 0.38 0.00 93 1009.1
20260504185811 8 90 0.0 0.0 0.00 0.38 0.00 93 1009.1
20260504185311 8 90 0.0 4.8 0.00 0.38 0.00 93 1009.1
20260504184811 8 0 0.0 1.6 0.00 0.38 0.00 93 1009.2
20260504184311 8 90 0.0 0.0 0.00 0.38 0.00 93 1009.3
20260504183811 8 0 0.0 3.2 0.00 0.38 0.00 93 1009.3
20260504183311 8 0 0.0 1.6 0.00 0.38 0.00 93 1009.3
20260504182811 8 45 0.0 6.4 0.00 0.38 0.00 93 1009.3
20260504182311 8 23 0.0 1.6 0.00 0.38 0.00 93 1009.4
20260504181810 8 45 0.0 3.2 0.00 0.38 0.00 93 1009.4
20260504181311 8 45 0.0 1.6 0.00 0.38 0.00 93 1009.3
20260504180811 8 45 0.0 1.6 0.00 0.38 0.00 94 1009.4
20260504180310 8 45 0.0 1.6 0.00 0.38 0.00 94 1009.4
20260504175811 8 45 0.0 1.6 0.00 0.38 0.00 94 1009.4
20260504175311 8 45 0.0 3.2 0.00 0.38 0.00 94 1009.5
20260504174810 8 45 0.0 3.2 0.00 0.38 0.00 95 1009.5
20260504174311 8 45 0.0 3.2 0.00 0.38 0.00 95 1009.5
20260504173811 8 45 0.0 0.0 0.00 0.38 0.00 95 1009.6
20260504173310 8 45 0.0 1.6 0.00 0.38 0.00 95 1009.6
20260504172810 8 90 0.0 1.6 0.00 0.38 0.00 95 1009.5
20260504172311 8 0 0.0 0.0 0.03 0.38 0.00 95 1009.5
20260504171810 8 0 0.0 1.6 0.03 0.38 0.00 95 1009.6
20260504171310 8 45 0.0 1.6 0.03 0.38 0.00 95 1009.6
20260504170810 8 45 0.0 1.6 0.05 0.38 0.00 95 1009.5